TimeBST,TemperatureF,Dew PointF,Humidity,Sea Level PressureIn,VisibilityMPH,Wind Direction,Wind SpeedMPH,Gust SpeedMPH,PrecipitationIn,Events,Conditions,WindDirDegrees,DateUTC
12:20 AM,60.8,59.0,94,30.12,6.2,SW,13.8,-,N/A,,Mostly Cloudy,220,2013-09-21 23:20:00
12:50 AM,60.8,57.2,88,30.12,6.2,SSW,18.4,-,N/A,,Overcast,210,2013-09-21 23:50:00
1:20 AM,60.8,57.2,88,30.12,6.2,SW,21.9,-,N/A,,Mostly Cloudy,220,2013-09-22 00:20:00
1:50 AM,60.8,57.2,88,30.12,6.2,SW,21.9,-,N/A,,Scattered Clouds,220,2013-09-22 00:50:00
2:20 AM,60.8,57.2,88,30.12,6.2,SW,18.4,-,N/A,,Mostly Cloudy,220,2013-09-22 01:20:00
2:50 AM,60.8,57.2,88,30.12,6.2,SSW,17.3,-,N/A,,Overcast,210,2013-09-22 01:50:00
3:20 AM,60.8,57.2,88,30.15,6.2,SSW,18.4,-,N/A,,Overcast,210,2013-09-22 02:20:00
3:50 AM,60.8,57.2,88,30.15,6.2,SSW,18.4,-,N/A,,Overcast,210,2013-09-22 02:50:00
4:20 AM,60.8,57.2,88,30.15,6.2,SSW,17.3,-,N/A,,Overcast,210,2013-09-22 03:20:00
4:50 AM,59.0,57.2,94,30.15,6.2,SW,12.7,-,N/A,,Overcast,220,2013-09-22 03:50:00
5:20 AM,59.0,57.2,94,30.15,6.2,SW,12.7,-,N/A,,Overcast,220,2013-09-22 04:20:00
5:50 AM,59.0,57.2,94,30.15,6.2,SW,11.5,-,N/A,,Mostly Cloudy,220,2013-09-22 04:50:00
6:20 AM,59.0,57.2,94,30.18,6.2,SW,11.5,-,N/A,Rain,Light Rain,230,2013-09-22 05:20:00
6:50 AM,59.0,57.2,94,30.18,6.2,SW,12.7,-,N/A,Rain,Light Rain,230,2013-09-22 05:50:00
7:20 AM,59.0,57.2,94,30.18,6.2,SW,13.8,-,N/A,,Mostly Cloudy,230,2013-09-22 06:20:00
7:50 AM,59.0,57.2,94,30.21,6.2,SW,10.4,-,N/A,,Mostly Cloudy,230,2013-09-22 06:50:00
8:20 AM,59.0,57.2,94,30.21,6.2,SW,13.8,-,N/A,,Mostly Cloudy,230,2013-09-22 07:20:00
8:50 AM,60.8,57.2,88,30.21,6.2,SW,12.7,-,N/A,,Mostly Cloudy,230,2013-09-22 07:50:00
9:20 AM,60.8,57.2,88,30.24,6.2,SSW,9.2,-,N/A,,Mostly Cloudy,210,2013-09-22 08:20:00
9:50 AM,60.8,57.2,88,30.24,6.2,SW,13.8,-,N/A,,Mostly Cloudy,230,2013-09-22 08:50:00
10:20 AM,60.8,57.2,88,30.24,6.2,SW,13.8,-,N/A,,Mostly Cloudy,220,2013-09-22 09:20:00
10:50 AM,62.6,59.0,88,30.24,6.2,SW,13.8,-,N/A,,Mostly Cloudy,230,2013-09-22 09:50:00
11:20 AM,64.4,59.0,83,30.27,6.2,SW,16.1,-,N/A,,Mostly Cloudy,230,2013-09-22 10:20:00
11:50 AM,64.4,59.0,83,30.27,6.2,SW,16.1,-,N/A,,Mostly Cloudy,230,2013-09-22 10:50:00
12:20 PM,64.4,59.0,83,30.27,6.2,SW,15.0,-,N/A,,Mostly Cloudy,230,2013-09-22 11:20:00
12:50 PM,64.4,59.0,83,30.27,6.2,WSW,16.1,-,N/A,,Mostly Cloudy,240,2013-09-22 11:50:00
1:20 PM,66.2,59.0,78,30.27,6.2,WSW,15.0,-,N/A,,Mostly Cloudy,240,2013-09-22 12:20:00
1:50 PM,66.2,57.2,73,30.27,6.2,WSW,13.8,-,N/A,,Mostly Cloudy,240,2013-09-22 12:50:00
2:20 PM,68.0,57.2,68,30.27,6.2,WSW,15.0,-,N/A,,Mostly Cloudy,240,2013-09-22 13:20:00
2:50 PM,66.2,57.2,73,30.27,6.2,SW,13.8,-,N/A,,Mostly Cloudy,230,2013-09-22 13:50:00
3:20 PM,66.2,55.4,68,30.27,6.2,SW,16.1,-,N/A,,Mostly Cloudy,230,2013-09-22 14:20:00
3:50 PM,66.2,57.2,73,30.27,6.2,SW,16.1,-,N/A,,Mostly Cloudy,230,2013-09-22 14:50:00
4:20 PM,64.4,57.2,77,30.24,6.2,WSW,15.0,-,N/A,,Mostly Cloudy,240,2013-09-22 15:20:00
4:50 PM,64.4,57.2,77,30.24,6.2,SW,13.8,-,N/A,,Mostly Cloudy,230,2013-09-22 15:50:00
5:20 PM,64.4,57.2,77,30.24,6.2,WSW,16.1,-,N/A,,Mostly Cloudy,240,2013-09-22 16:20:00
5:50 PM,62.6,57.2,82,30.24,6.2,WSW,13.8,-,N/A,,Mostly Cloudy,240,2013-09-22 16:50:00
6:20 PM,62.6,57.2,82,30.27,6.2,SW,11.5,-,N/A,,Mostly Cloudy,230,2013-09-22 17:20:00
6:50 PM,62.6,57.2,82,30.27,6.2,WSW,11.5,-,N/A,,Mostly Cloudy,250,2013-09-22 17:50:00
7:20 PM,62.6,57.2,82,30.27,6.2,SW,10.4,-,N/A,,Mostly Cloudy,230,2013-09-22 18:20:00
7:50 PM,60.8,57.2,88,30.27,6.2,WSW,11.5,-,N/A,,Mostly Cloudy,240,2013-09-22 18:50:00
8:20 PM,60.8,57.2,88,30.27,6.2,SW,9.2,-,N/A,,Overcast,220,2013-09-22 19:20:00
8:50 PM,59.0,55.4,88,30.27,6.2,WSW,8.1,-,N/A,,Partly Cloudy,250,2013-09-22 19:50:00
9:20 PM,57.2,55.4,94,30.30,6.2,West,4.6,-,N/A,,Mostly Cloudy,260,2013-09-22 20:20:00
9:50 PM,55.4,53.6,94,30.30,6.2,Variable,3.5,-,N/A,,Scattered Clouds,0,2013-09-22 20:50:00
10:20 PM,55.4,53.6,94,30.30,6.2,North,3.5,-,N/A,,Mostly Cloudy,360,2013-09-22 21:20:00
10:50 PM,55.4,55.4,100,30.30,6.2,WNW,2.3,-,N/A,,Scattered Clouds,300,2013-09-22 21:50:00
11:20 PM,57.2,55.4,94,30.30,6.2,Calm,Calm,-,N/A,,Scattered Clouds,0,2013-09-22 22:20:00
11:50 PM,55.4,55.4,100,30.27,6.2,West,3.5,-,N/A,,Scattered Clouds,260,2013-09-22 22:50:00